DW6399 Weather Reports


Display with metric or nautical units.
time (UTC)temp
F
wind
direction
speed
MPH
gust
MPH
rain 1hr
in
rain 24hr
in
rain mn
in
humidity
%
barometer
mb
20260831030004 57 151 3.0 6.0 0.00 0.27 0.01 96 1003.9
20260831025404 57 147 3.0 6.0 0.00 0.27 0.01 96 1003.9
20260831024504 57 161 2.0 5.0 0.00 0.27 0.01 96 1004.0
20260831023604 57 170 2.0 6.0 0.00 0.27 0.01 96 1003.9
20260831022704 57 148 4.0 8.0 0.00 0.27 0.01 96 1003.9
20260831021804 57 161 3.0 8.0 0.00 0.27 0.01 96 1003.9
20260831020904 57 157 3.0 8.0 0.00 0.27 0.01 96 1003.9
20260831020004 57 155 4.0 7.0 0.00 0.27 0.01 96 1003.8
20260831015404 57 159 4.0 8.0 0.00 0.27 0.01 96 1003.9
20260831014504 57 159 4.0 8.0 0.00 0.27 0.01 96 1004.0
20260831013603 57 159 4.0 7.0 0.01 0.27 0.01 96 1003.9
20260831012725 57 156 3.0 8.0 0.01 0.27 0.01 96 1003.9
20260831011804 57 167 5.0 9.0 0.01 0.27 0.01 96 1004.0
20260831010904 57 169 3.0 8.0 0.01 0.27 0.01 96 1003.9
20260831010004 57 137 2.0 4.0 0.01 0.27 0.01 96 1003.9
20260831005404 57 137 1.0 3.0 0.01 0.27 0.01 96 1003.9
20260831004525 57 137 1.0 3.0 0.01 0.27 0.01 96 1003.9
20260831003604 57 137 1.0 2.0 0.00 0.26 0.00 96 1003.9
20260831002704 58 137 2.0 3.0 0.00 0.26 0.00 96 1003.9
20260831001804 58 137 2.0 4.0 0.00 0.26 0.00 96 1003.9
20260831000904 58 137 2.0 3.0 0.00 0.26 0.00 96 1004.0
20260831000004 58 137 2.0 4.0 0.00 0.26 0.00 96 1003.9
20260830235404 58 137 1.0 3.0 0.00 0.26 0.00 96 1003.9
20260830234525 58 137 1.0 3.0 0.00 0.26 0.00 96 1003.9
20260830233604 58 137 1.0 4.0 0.00 0.26 0.00 96 1003.9
20260830232704 58 137 2.0 4.0 0.00 0.26 0.00 96 1003.9
20260830231804 58 137 2.0 4.0 0.00 0.26 0.00 96 1004.0
20260830230904 58 137 2.0 4.0 0.00 0.26 0.00 96 1004.0
20260830230004 58 137 2.0 3.0 0.00 0.26 0.00 96 1004.0
20260830225404 58 137 2.0 3.0 0.00 0.26 0.00 96 1004.0
20260830224503 58 137 2.0 4.0 0.00 0.26 0.00 96 1003.9
20260830223625 58 137 2.0 4.0 0.00 0.26 0.00 96 1003.9
20260830222704 58 137 2.0 4.0 0.00 0.26 0.00 96 1003.9
20260830221804 58 136 2.0 4.0 0.00 0.26 0.00 96 1003.9
20260830220904 58 136 2.0 4.0 0.00 0.26 0.00 95 1003.9
20260830220004 58 151 2.0 5.0 0.00 0.26 0.00 96 1003.9
20260830215404 58 166 3.0 5.0 0.00 0.26 0.00 95 1003.8
20260830214504 59 164 3.0 5.0 0.00 0.26 0.00 95 1003.9
20260830213625 59 165 3.0 7.0 0.00 0.26 0.00 95 1003.9
20260830212703 59 171 3.0 7.0 0.00 0.26 0.00 96 1004.0
20260830211803 59 173 4.0 7.0 0.00 0.26 0.00 96 1004.0
20260830210904 59 166 5.0 8.0 0.00 0.26 0.00 96 1003.9
20260830210026 59 169 4.0 8.0 0.00 0.26 0.00 95 1003.8
20260830205403 59 169 4.0 7.0 0.00 0.26 0.26 95 1003.8
20260830204525 59 157 5.0 9.0 0.00 0.26 0.26 95 1003.8
20260830203603 59 160 4.0 9.0 0.00 0.26 0.26 95 1003.7
20260830202725 59 156 5.0 9.0 0.01 0.26 0.26 95 1003.7
20260830201824 59 158 6.0 10.0 0.05 0.26 0.26 95 1003.6
20260830200903 59 148 5.0 10.0 0.06 0.26 0.26 95 1003.6
20260830200004 59 149 5.0 11.0 0.10 0.26 0.26 95 1003.6
20260830195403 59 150 5.0 11.0 0.11 0.26 0.26 95 1003.6
20260830194525 59 149 6.0 11.0 0.14 0.26 0.26 95 1003.6
20260830193603 59 145 5.0 9.0 0.15 0.26 0.26 94 1003.6
20260830192703 59 148 6.0 11.0 0.15 0.25 0.25 94 1003.6
20260830191824 59 141 6.0 10.0 0.11 0.20 0.20 94 1003.6
20260830190903 59 140 6.0 11.0 0.10 0.19 0.19 93 1003.5
20260830190004 59 142 6.0 10.0 0.06 0.15 0.15 93 1003.6
20260830185403 59 142 5.0 11.0 0.05 0.14 0.14 93 1003.6
20260830184504 60 145 4.0 8.0 0.02 0.11 0.11 92 1003.6
20260830183604 60 147 4.0 8.0 0.01 0.10 0.10 92 1003.7
20260830182704 60 148 5.0 8.0 0.00 0.09 0.09 92 1003.7
20260830181803 60 149 5.0 10.0 0.00 0.09 0.09 91 1003.7
20260830180904 60 150 6.0 10.0 0.00 0.09 0.09 91 1003.7
20260830180004 60 147 5.0 8.0 0.00 0.09 0.09 91 1003.7
20260830175425 60 147 5.0 10.0 0.00 0.09 0.09 91 1003.7
20260830174503 61 149 6.0 10.0 0.00 0.09 0.09 90 1003.7
20260830173603 61 145 5.0 11.0 0.00 0.09 0.09 90 1003.7
20260830172703 61 144 5.0 12.0 0.00 0.09 0.09 90 1003.6
20260830171803 61 146 5.0 12.0 0.00 0.09 0.09 90 1003.6
20260830170903 61 146 5.0 9.0 0.00 0.09 0.09 90 1003.6
20260830170003 61 143 7.0 14.0 0.00 0.09 0.09 89 1003.5
20260830165403 61 142 6.0 14.0 0.00 0.09 0.09 89 1003.5
20260830164503 62 142 6.0 11.0 0.00 0.09 0.09 89 1003.5
20260830163604 62 143 6.0 12.0 0.00 0.09 0.09 89 1003.5
20260830162724 62 146 6.0 11.0 0.00 0.09 0.09 88 1003.6
20260830161803 62 141 6.0 11.0 0.00 0.09 0.09 88 1003.5
20260830160924 62 143 5.0 10.0 0.00 0.09 0.09 88 1003.5
20260830160003 62 141 6.0 10.0 0.00 0.09 0.09 88 1003.5
20260830155403 62 143 6.0 13.0 0.00 0.09 0.09 87 1003.6
20260830154504 62 152 8.0 16.0 0.00 0.09 0.09 87 1003.5
20260830153625 62 151 7.0 14.0 0.00 0.09 0.09 87 1003.6
20260830152703 63 152 8.0 16.0 0.00 0.09 0.09 87 1003.7
20260830151803 63 153 8.0 15.0 0.00 0.09 0.09 87 1003.7
20260830150903 63 144 5.0 13.0 0.00 0.09 0.09 87 1003.7
20260830150004 63 142 7.0 14.0 0.00 0.09 0.09 87 1003.8
20260830145424 63 145 7.0 13.0 0.00 0.09 0.09 87 1003.9
20260830144503 63 149 8.0 14.0 0.00 0.09 0.09 87 1003.9
20260830143603 63 155 6.0 13.0 0.00 0.09 0.09 88 1003.8
20260830142703 63 153 8.0 14.0 0.00 0.09 0.09 88 1003.9
20260830141803 63 150 8.0 15.0 0.00 0.09 0.09 87 1003.9
20260830140903 63 152 8.0 17.0 0.00 0.09 0.09 87 1003.8
20260830140025 63 151 10.0 19.0 0.00 0.09 0.09 88 1003.8
20260830135424 63 156 9.0 19.0 0.00 0.09 0.09 88 1003.9
20260830134504 63 153 8.0 17.0 0.00 0.09 0.09 88 1003.9
20260830133603 62 157 8.0 14.0 0.00 0.09 0.09 89 1003.9
20260830132724 62 147 7.0 15.0 0.00 0.09 0.09 90 1003.8
20260830131803 62 145 9.0 16.0 0.00 0.09 0.09 90 1003.8
20260830130904 62 143 6.0 12.0 0.00 0.09 0.09 91 1003.8
20260830130003 62 150 7.0 14.0 0.00 0.09 0.09 90 1003.9
20260830125404 62 150 9.0 17.0 0.00 0.09 0.09 89 1003.9
20260830124503 63 149 7.0 17.0 0.00 0.09 0.09 90 1003.9
20260830123603 62 155 8.0 16.0 0.00 0.09 0.09 90 1003.9
20260830122703 62 152 7.0 13.0 0.00 0.09 0.09 91 1004.0
20260830121803 61 153 7.0 14.0 0.00 0.09 0.09 92 1004.1
20260830120903 61 149 7.0 12.0 0.00 0.09 0.09 92 1004.1
20260830120004 61 149 7.0 13.0 0.00 0.09 0.09 92 1004.1
20260830115403 61 151 8.0 13.0 0.00 0.09 0.09 93 1004.1
20260830114504 61 154 7.0 14.0 0.00 0.09 0.09 94 1004.1
20260830113603 60 156 6.0 13.0 0.00 0.09 0.09 94 1004.2
20260830112724 60 153 8.0 15.0 0.00 0.09 0.09 95 1004.2
20260830111803 60 153 9.0 15.0 0.00 0.09 0.09 95 1004.3
20260830110903 59 149 7.0 17.0 0.00 0.09 0.09 95 1004.3
20260830110024 59 151 7.0 15.0 0.00 0.09 0.09 95 1004.4
20260830105404 59 151 7.0 14.0 0.00 0.09 0.09 95 1004.4
20260830104504 59 152 7.0 14.0 0.00 0.09 0.09 95 1004.4
20260830103624 59 154 9.0 15.0 0.00 0.09 0.09 95 1004.2
20260830102703 59 156 8.0 16.0 0.00 0.09 0.09 95 1004.2
20260830101803 58 157 8.0 13.0 0.00 0.09 0.09 95 1004.2
20260830100903 58 154 8.0 17.0 0.00 0.09 0.09 95 1004.1
20260830100004 58 154 8.0 13.0 0.01 0.09 0.09 95 1004.1
20260830095424 58 157 7.0 16.0 0.01 0.09 0.09 95 1004.1
20260830094503 58 152 8.0 16.0 0.01 0.09 0.09 95 1004.0
20260830093603 58 153 9.0 16.0 0.01 0.09 0.09 95 1004.1
20260830092703 58 147 9.0 16.0 0.01 0.09 0.09 95 1004.0
20260830091803 57 148 9.0 17.0 0.01 0.09 0.09 95 1004.0
20260830090903 57 149 9.0 16.0 0.01 0.09 0.09 95 1004.0
20260830090004 57 147 9.0 16.0 0.00 0.08 0.08 95 1004.0
20260830085403 57 146 10.0 16.0 0.00 0.08 0.08 95 1004.0
20260830084503 57 145 8.0 17.0 0.00 0.08 0.08 95 1004.0
20260830083603 57 144 9.0 18.0 0.00 0.08 0.08 95 1003.9
20260830082703 57 139 9.0 16.0 0.00 0.08 0.08 95 1004.0
20260830081803 57 142 10.0 18.0 0.00 0.08 0.08 95 1004.0
20260830080903 57 142 9.0 17.0 0.01 0.08 0.08 95 1004.0
20260830080004 57 142 9.0 16.0 0.01 0.08 0.08 95 1004.0
20260830075403 57 145 9.0 18.0 0.01 0.08 0.08 94 1004.1
20260830074503 57 143 8.0 15.0 0.02 0.08 0.08 94 1004.2
20260830073603 57 136 8.0 15.0 0.02 0.08 0.08 94 1004.2
20260830072724 56 139 7.0 16.0 0.02 0.08 0.08 94 1004.2
20260830071803 56 139 8.0 14.0 0.03 0.08 0.08 94 1004.3
20260830070903 56 132 7.0 14.0 0.03 0.07 0.07 94 1004.3
20260830070003 56 134 7.0 16.0 0.04 0.07 0.07 94 1004.3
20260830065403 56 133 7.0 12.0 0.05 0.07 0.07 94 1004.4
20260830064524 56 130 7.0 12.0 0.04 0.06 0.06 94 1004.4
20260830063624 56 129 6.0 13.0 0.05 0.06 0.06 94 1004.5
20260830062703 56 125 7.0 12.0 0.06 0.06 0.06 94 1004.4
20260830061803 56 125 7.0 12.0 0.05 0.05 0.05 94 1004.5
20260830060924 56 125 6.0 12.0 0.04 0.04 0.04 93 1004.6
20260830060024 56 128 6.0 11.0 0.03 0.03 0.03 93 1004.7
20260830055403 56 126 6.0 13.0 0.02 0.02 0.02 93 1004.8
20260830054503 56 129 6.0 14.0 0.02 0.02 0.02 93 1004.9
20260830053603 56 136 7.0 12.0 0.01 0.01 0.01 92 1005.0
20260830052703 56 133 6.0 11.0 0.00 0.00 0.00 92 1005.0
20260830051824 56 135 6.0 11.0 0.00 0.00 0.00 92 1005.1
20260830050924 56 129 6.0 14.0 0.00 0.00 0.00 92 1005.2
20260830050003 56 127 7.0 13.0 0.00 0.00 0.00 92 1005.3
20260830045403 56 127 7.0 14.0 0.00 0.00 0.00 91 1005.3
20260830044503 56 128 6.0 12.0 0.00 0.00 0.00 91 1005.5
20260830043603 57 128 7.0 16.0 0.00 0.00 0.00 91 1005.6
20260830042703 57 130 7.0 14.0 0.00 0.00 0.00 90 1005.7
20260830041803 57 125 7.0 14.0 0.00 0.00 0.00 90 1005.8
20260830040903 57 128 7.0 13.0 0.00 0.00 0.00 90 1005.9
20260830040003 57 128 7.0 12.0 0.00 0.00 0.00 90 1005.9
20260830035403 56 132 6.0 12.0 0.00 0.00 0.00 90 1006.0
20260830034503 56 133 6.0 14.0 0.00 0.00 0.00 90 1006.1
20260830033624 56 131 7.0 13.0 0.00 0.00 0.00 90 1006.2
20260830032703 56 126 6.0 13.0 0.00 0.00 0.00 90 1006.2
20260830031803 56 129 7.0 12.0 0.00 0.00 0.00 91 1006.3
20260830030903 56 127 7.0 13.0 0.00 0.00 0.00 90 1006.4